Home > Weather > Bloomington > Past weeks

Flag for USA Weather for the Past 2 Weeks in Bloomington, Illinois, USA

Now
51 °F

Fog.


Feels Like: 46 °F
Forecast: 46 / 56 °F
Wind: 14 mph from North

Location: Bloomington / Normal

Current Time: May 1, 2016 at 9:35:23 PM

Latest Report: May 1, 2016 at 8:56 PM


Visibility: 3 mi

Pressure: 29.99 "Hg

Humidity: 100%

Dew Point: 51 °F

Location of BloomingtonLocation

Historic Weather in Bloomington — Graph

°F

Bloomington Temperature Yesterday

Maximum temperature yesterday: 59 °F (at 5:56 PM)
Minimum temperature yesterday: 46 °F (at 12:56 AM)
Average temperature yesterday: 52 °F

High & Low Weather Summary for the Past Weeks

 TemperatureHumidityPressure
High82 °F (Apr 17, 3:56 PM)100% (Apr 20, 6:56 PM)30.38 "Hg (Apr 20, 6:56 PM)
Low38 °F (Apr 23, 5:56 AM)24% (Apr 17, 4:56 PM)29.65 "Hg (Apr 25, 6:56 PM)
Average60 °F77%29.98 "Hg
* Reported Apr 16 7:56 PM — May 1 7:56 PM, Bloomington, Weather by CustomWeather, © 2016

Note: Actual official high and low records may vary slightly from our data, if they occured in-between our weather recording intervals... More about our weather records

Advertising

Bloomington Weather History for the Previous 24 Hours

Scroll right to see more
 ConditionsComfort  
Time TempWeatherWind HumidityBarometerVisibility
7:56 PM
Sun, May 1
53 °FLight rain. Fog.10 mph100%29.97 "Hg2 mi
6:56 PM53 °FLight rain. Fog.9 mph100%29.94 "Hg1 mi
5:56 PM56 °FLight rain. Fog.12 mph100%29.92 "Hg3 mi
4:56 PM56 °FFog.12 mph100%29.93 "Hg2 mi
3:56 PM57 °FFog.9 mph97%29.94 "Hg2 mi
2:56 PM56 °FFog.12 mph100%29.96 "Hg2 mi
1:56 PM56 °FFog.10 mph100%29.98 "Hg3 mi
12:56 PM55 °FFog.9 mph100%29.97 "Hg4 mi
11:56 AM55 °FFog.13 mph100%29.98 "Hg3 mi
10:56 AM53 °FFog.13 mph100%29.97 "Hg3 mi
9:56 AM51 °FFog.12 mph100%29.97 "Hg1 mi
8:56 AM50 °FFog.12 mph100%29.96 "Hg0 mi
8:03 AM48 °FFog.12 mph100%29.94 "Hg0 mi
7:56 AM50 °FFog.10 mph100%29.95 "Hg0 mi
6:56 AM49 °FFog.10 mph100%29.93 "Hg0 mi
5:56 AM49 °FFog.8 mph100%29.92 "Hg1 mi
5:03 AM48 °FFog.12 mph100%29.89 "Hg1 mi
4:56 AM49 °FFog.12 mph100%29.89 "Hg1 mi
3:56 AM49 °FFog.9 mph100%29.89 "Hg1 mi
2:56 AM50 °FFog.12 mph100%29.88 "Hg0 mi
1:56 AM50 °FFog.9 mph100%29.88 "Hg0 mi
12:56 AM50 °FFog.12 mph100%29.87 "Hg0 mi
11:56 PM
Sat, Apr 30
51 °FFog.13 mph100%29.86 "Hg0 mi
10:56 PM51 °FFog.12 mph100%29.87 "Hg0 mi
9:56 PM52 °FFog.13 mph100%29.86 "Hg0 mi
Weather by CustomWeather, © 2016

See weather overviewHow to use our weather pages